Location: Malanoce
(44.2500°N, 7.4667°E)
Time: 05:36:20
(UTC+00:00)

Timation 1 Rocket - Pass Details

Date: 17 November 2025
Orbit: 898 x 905 km, 70.0° (Epoch: 09 December)

Event Time Altitude Azimuth Distance (km) Brightness Sun altitude
Rises 16:48:24 0° 336° (NNW) 3,527 7.5 -8.6°
Reaches altitude 10° 16:50:59 10° 341° (NNW) 2,583 6.8 -9.1°
Maximum altitude 16:56:49 54° 58° (ENE) 1,085 4.4 -10.1°
Drops below altitude 10° 17:02:38 10° 136° (SE) 2,573 6.4 -11.1°
Sets 17:05:11 0° 140° (SE) 3,511 7.2 -11.5°
